Location: New Plymouth
(39.0670°S, 174.0830°E)
Time: 02:34:49
(UTC+13:00)

ERS-1 Rocket - Pass Details

Date: 24 January 2019
Orbit: 754 x 757 km, 98.5° (Epoch: 16 February)

Event Time Altitude Azimuth Distance (km) Brightness Sun altitude
Rises 22:37:40 0° 152° (SSE) 3,245 6.5 -18.4°
Reaches altitude 10° 22:40:27 10° 138° (SE) 2,310 5.5 -18.8°
Enters shadow 22:44:02 23° 93° (E) 1,598 4.3 -19.2°
